Year,Month,Day,Hour,Minute,Value (Times are PST for temperature in C)
2009,02,03,00,00,2.80
2009,02,03,00,01,2.80
2009,02,03,00,02,2.80
2009,02,03,00,03,2.80
2009,02,03,00,04,2.80
2009,02,03,00,05,2.70
2009,02,03,00,06,2.70
2009,02,03,00,07,2.70
2009,02,03,00,08,2.70
2009,02,03,00,09,2.70
2009,02,03,00,10,2.70
2009,02,03,00,11,2.70
2009,02,03,00,12,2.70
2009,02,03,00,13,2.60
2009,02,03,00,14,2.60
2009,02,03,00,15,2.60
2009,02,03,00,16,2.60
2009,02,03,00,17,2.60
2009,02,03,00,18,2.60
2009,02,03,00,19,2.60
2009,02,03,00,20,2.60
2009,02,03,00,21,2.60
2009,02,03,00,22,2.60
2009,02,03,00,23,2.60
2009,02,03,00,24,2.60
2009,02,03,00,25,2.60
2009,02,03,00,26,2.60
2009,02,03,00,27,2.60
2009,02,03,00,28,2.60
2009,02,03,00,29,2.60
2009,02,03,00,30,2.60
2009,02,03,00,31,2.60
2009,02,03,00,32,2.60
2009,02,03,00,33,2.60
2009,02,03,00,34,2.60
2009,02,03,00,35,2.50
2009,02,03,00,36,2.50
2009,02,03,00,37,2.50
2009,02,03,00,38,2.50
2009,02,03,00,39,2.50
2009,02,03,00,40,2.50
2009,02,03,00,41,2.50
2009,02,03,00,42,2.50
2009,02,03,00,43,2.50
2009,02,03,00,44,2.50
2009,02,03,00,45,2.50
2009,02,03,00,46,2.40
2009,02,03,00,47,2.40
2009,02,03,00,48,2.40
2009,02,03,00,49,2.40
2009,02,03,00,50,2.40
2009,02,03,00,51,2.40
2009,02,03,00,52,2.40
2009,02,03,00,53,2.40
2009,02,03,00,54,2.40
2009,02,03,00,55,2.40
2009,02,03,00,56,2.40
2009,02,03,00,57,2.40
2009,02,03,00,58,2.40
2009,02,03,00,59,2.40
2009,02,03,01,00,2.40
2009,02,03,01,01,2.40
2009,02,03,01,02,2.40
2009,02,03,01,03,2.40
2009,02,03,01,04,2.40
2009,02,03,01,05,2.40
2009,02,03,01,06,2.40
2009,02,03,01,07,2.40
2009,02,03,01,08,2.30
2009,02,03,01,09,2.30
2009,02,03,01,10,2.30
2009,02,03,01,11,2.30
2009,02,03,01,12,2.30
2009,02,03,01,13,2.30
2009,02,03,01,14,2.40
2009,02,03,01,15,2.40
2009,02,03,01,16,2.40
2009,02,03,01,17,2.40
2009,02,03,01,18,2.40
2009,02,03,01,19,2.40
2009,02,03,01,20,2.40
2009,02,03,01,21,2.40
2009,02,03,01,22,2.40
2009,02,03,01,23,2.40
2009,02,03,01,24,2.40
2009,02,03,01,25,2.40
2009,02,03,01,26,2.30
2009,02,03,01,27,2.30
2009,02,03,01,28,2.30
2009,02,03,01,29,2.30
2009,02,03,01,30,2.30
2009,02,03,01,31,2.30
2009,02,03,01,32,2.30
2009,02,03,01,33,2.30
2009,02,03,01,34,2.30
2009,02,03,01,35,2.30
2009,02,03,01,36,2.30
2009,02,03,01,37,2.30
2009,02,03,01,38,2.20
2009,02,03,01,39,2.20
2009,02,03,01,40,2.20
2009,02,03,01,41,2.20
2009,02,03,01,42,2.20
2009,02,03,01,43,2.20
2009,02,03,01,44,2.20
2009,02,03,01,45,2.20
2009,02,03,01,46,2.20
2009,02,03,01,47,2.20
2009,02,03,01,48,2.20
2009,02,03,01,49,2.20
2009,02,03,01,50,2.20
2009,02,03,01,51,2.20
2009,02,03,01,52,2.20
2009,02,03,01,53,2.20
2009,02,03,01,54,2.20
2009,02,03,01,55,2.20
2009,02,03,01,56,2.20
2009,02,03,01,57,2.20
2009,02,03,01,58,2.10
2009,02,03,01,59,2.10
2009,02,03,02,00,2.10
2009,02,03,02,01,2.10
2009,02,03,02,02,2.10
2009,02,03,02,03,2.00
2009,02,03,02,04,2.00
2009,02,03,02,05,2.00
2009,02,03,02,06,2.00
2009,02,03,02,07,2.00
2009,02,03,02,08,2.00
2009,02,03,02,09,2.00
2009,02,03,02,10,2.00
2009,02,03,02,11,2.00
2009,02,03,02,12,2.00
2009,02,03,02,13,2.00
2009,02,03,02,14,2.10
2009,02,03,02,15,2.10
2009,02,03,02,16,2.10
2009,02,03,02,17,2.10
2009,02,03,02,18,2.10
2009,02,03,02,19,2.10
2009,02,03,02,20,2.10
2009,02,03,02,21,2.20
2009,02,03,02,22,2.10
2009,02,03,02,23,2.10
2009,02,03,02,24,2.10
2009,02,03,02,25,2.10
2009,02,03,02,26,2.10
2009,02,03,02,27,2.10
2009,02,03,02,28,2.10
2009,02,03,02,29,2.10
2009,02,03,02,30,2.10
2009,02,03,02,31,2.10
2009,02,03,02,32,2.10
2009,02,03,02,33,2.10
2009,02,03,02,34,2.10
2009,02,03,02,35,2.00
2009,02,03,02,36,2.00
2009,02,03,02,37,2.00
2009,02,03,02,38,2.10
2009,02,03,02,39,2.10
2009,02,03,02,40,2.10
2009,02,03,02,41,2.10
2009,02,03,02,42,2.10
2009,02,03,02,43,2.10
2009,02,03,02,44,2.20
2009,02,03,02,45,2.20
2009,02,03,02,46,2.20
2009,02,03,02,47,2.20
2009,02,03,02,48,2.30
2009,02,03,02,49,2.30
2009,02,03,02,50,2.30
2009,02,03,02,51,2.30
2009,02,03,02,52,2.30
2009,02,03,02,53,2.30
2009,02,03,02,54,2.40
2009,02,03,02,55,2.40
2009,02,03,02,56,2.40
2009,02,03,02,57,2.40
2009,02,03,02,58,2.40
2009,02,03,02,59,2.40
2009,02,03,03,00,2.40
2009,02,03,03,01,2.40
2009,02,03,03,02,2.40
2009,02,03,03,03,2.40
2009,02,03,03,04,2.40
2009,02,03,03,05,2.40
2009,02,03,03,06,2.40
2009,02,03,03,07,2.40
2009,02,03,03,08,2.40
2009,02,03,03,09,2.40
2009,02,03,03,10,2.30
2009,02,03,03,11,2.30
2009,02,03,03,12,2.40
2009,02,03,03,13,2.40
2009,02,03,03,14,2.50
2009,02,03,03,15,2.50
2009,02,03,03,16,2.50
2009,02,03,03,17,2.40
2009,02,03,03,18,2.40
2009,02,03,03,19,2.40
2009,02,03,03,20,2.40
2009,02,03,03,21,2.40
2009,02,03,03,22,2.40
2009,02,03,03,23,2.40
2009,02,03,03,24,2.40
2009,02,03,03,25,2.40
2009,02,03,03,26,2.30
2009,02,03,03,27,2.30
2009,02,03,03,28,2.30
2009,02,03,03,29,2.30
2009,02,03,03,30,2.40
2009,02,03,03,31,2.40
2009,02,03,03,32,2.40
2009,02,03,03,33,2.40
2009,02,03,03,34,2.40
2009,02,03,03,35,2.40
2009,02,03,03,36,2.40
2009,02,03,03,37,2.40
2009,02,03,03,38,2.40
2009,02,03,03,39,2.40
2009,02,03,03,40,2.40
2009,02,03,03,41,2.40
2009,02,03,03,42,2.40
2009,02,03,03,43,2.40
2009,02,03,03,44,2.40
2009,02,03,03,45,2.40
2009,02,03,03,46,2.40
2009,02,03,03,47,2.40
2009,02,03,03,48,2.40
2009,02,03,03,49,2.40
2009,02,03,03,50,2.40
2009,02,03,03,51,2.40
2009,02,03,03,52,2.40
2009,02,03,03,53,2.40
2009,02,03,03,54,2.40
2009,02,03,03,55,2.40
2009,02,03,03,56,2.50
2009,02,03,03,57,2.50
2009,02,03,03,58,2.50
2009,02,03,03,59,2.50
2009,02,03,04,00,2.50
2009,02,03,04,01,2.50
2009,02,03,04,02,2.50
2009,02,03,04,03,2.50
2009,02,03,04,04,2.50
2009,02,03,04,05,2.50
2009,02,03,04,06,2.50
2009,02,03,04,07,2.40
2009,02,03,04,08,2.40
2009,02,03,04,09,2.40
2009,02,03,04,10,2.40
2009,02,03,04,11,2.40
2009,02,03,04,12,2.40
2009,02,03,04,13,2.40
2009,02,03,04,14,2.50
2009,02,03,04,15,2.50
2009,02,03,04,16,2.60
2009,02,03,04,17,2.60
2009,02,03,04,18,2.60
2009,02,03,04,19,2.60
2009,02,03,04,20,2.50
2009,02,03,04,21,2.50
2009,02,03,04,22,2.50
2009,02,03,04,23,2.50
2009,02,03,04,24,2.50
2009,02,03,04,25,2.40
2009,02,03,04,26,2.40
2009,02,03,04,27,2.40
2009,02,03,04,28,2.40
2009,02,03,04,29,2.40
2009,02,03,04,30,2.40
2009,02,03,04,31,2.40
2009,02,03,04,32,2.40
2009,02,03,04,33,2.40
2009,02,03,04,34,2.40
2009,02,03,04,35,2.40
2009,02,03,04,36,2.40
2009,02,03,04,37,2.40
2009,02,03,04,38,2.50
2009,02,03,04,39,2.50
2009,02,03,04,40,2.60
2009,02,03,04,41,2.60
2009,02,03,04,42,2.60
2009,02,03,04,43,2.60
2009,02,03,04,44,2.70
2009,02,03,04,45,2.60
2009,02,03,04,46,2.60
2009,02,03,04,47,2.60
2009,02,03,04,48,2.60
2009,02,03,04,49,2.60
2009,02,03,04,50,2.60
2009,02,03,04,51,2.60
2009,02,03,04,52,2.60
2009,02,03,04,53,2.60
2009,02,03,04,54,2.60
2009,02,03,04,55,2.60
2009,02,03,04,56,2.60
2009,02,03,04,57,2.60
2009,02,03,04,58,2.70
2009,02,03,04,59,2.70
2009,02,03,05,00,2.70
2009,02,03,05,01,2.70
2009,02,03,05,02,2.70
2009,02,03,05,03,2.70
2009,02,03,05,04,2.70
2009,02,03,05,05,2.70
2009,02,03,05,06,2.70
2009,02,03,05,07,2.70
2009,02,03,05,08,2.70
2009,02,03,05,09,2.70
2009,02,03,05,10,2.70
2009,02,03,05,11,2.60
2009,02,03,05,12,2.60
2009,02,03,05,13,2.60
2009,02,03,05,14,2.60
2009,02,03,05,15,2.60
2009,02,03,05,16,2.60
2009,02,03,05,17,2.60
2009,02,03,05,18,2.60
2009,02,03,05,19,2.60
2009,02,03,05,20,2.60
2009,02,03,05,21,2.50
2009,02,03,05,22,2.50
2009,02,03,05,23,2.50
2009,02,03,05,24,2.50
2009,02,03,05,25,2.50
2009,02,03,05,26,2.50
2009,02,03,05,27,2.50
2009,02,03,05,28,2.40
2009,02,03,05,29,2.40
2009,02,03,05,30,2.40
2009,02,03,05,31,2.40
2009,02,03,05,32,2.40
2009,02,03,05,33,2.40
2009,02,03,05,34,2.40
2009,02,03,05,35,2.30
2009,02,03,05,36,2.30
2009,02,03,05,37,2.30
2009,02,03,05,38,2.40
2009,02,03,05,39,2.50
2009,02,03,05,40,2.50
2009,02,03,05,41,2.50
2009,02,03,05,42,2.50
2009,02,03,05,43,2.50
2009,02,03,05,44,2.60
2009,02,03,05,45,2.60
2009,02,03,05,46,2.60
2009,02,03,05,47,2.70
2009,02,03,05,48,2.70
2009,02,03,05,49,2.70
2009,02,03,05,50,2.80
2009,02,03,05,51,2.80
2009,02,03,05,52,2.80
2009,02,03,05,53,2.90
2009,02,03,05,54,2.90
2009,02,03,05,55,2.90
2009,02,03,05,56,2.90
2009,02,03,05,57,2.90
2009,02,03,05,58,2.90
2009,02,03,05,59,2.90
2009,02,03,06,00,2.90
2009,02,03,06,01,2.90
2009,02,03,06,02,3.00
2009,02,03,06,03,3.00
2009,02,03,06,04,3.00
2009,02,03,06,05,3.00
2009,02,03,06,06,3.00
2009,02,03,06,07,3.00
2009,02,03,06,08,3.00
2009,02,03,06,09,3.00
2009,02,03,06,10,3.10
2009,02,03,06,11,3.10
2009,02,03,06,12,3.10
2009,02,03,06,13,3.10
2009,02,03,06,14,3.10
2009,02,03,06,15,3.20
2009,02,03,06,16,3.20
2009,02,03,06,17,3.20
2009,02,03,06,18,3.20
2009,02,03,06,19,3.20
2009,02,03,06,20,3.20
2009,02,03,06,21,3.20
2009,02,03,06,22,3.20
2009,02,03,06,23,3.30
2009,02,03,06,24,3.30
2009,02,03,06,25,3.30
2009,02,03,06,26,3.30
2009,02,03,06,27,3.40
2009,02,03,06,28,3.40
2009,02,03,06,29,3.50
2009,02,03,06,30,3.60
2009,02,03,06,31,3.60
2009,02,03,06,32,3.70
2009,02,03,06,33,3.70
2009,02,03,06,34,3.70
2009,02,03,06,35,3.70
2009,02,03,06,36,3.80
2009,02,03,06,37,3.80
2009,02,03,06,38,3.80
2009,02,03,06,39,3.80
2009,02,03,06,40,3.80
2009,02,03,06,41,3.80
2009,02,03,06,42,3.90
2009,02,03,06,43,3.90
2009,02,03,06,44,3.90
2009,02,03,06,45,3.90
2009,02,03,06,46,3.90
2009,02,03,06,47,3.90
2009,02,03,06,48,3.80
2009,02,03,06,49,3.80
2009,02,03,06,50,3.80
2009,02,03,06,51,3.80
2009,02,03,06,52,3.70
2009,02,03,06,53,3.70
2009,02,03,06,54,3.70
2009,02,03,06,55,3.80
2009,02,03,06,56,3.80
2009,02,03,06,57,3.80
2009,02,03,06,58,3.80
2009,02,03,06,59,3.80
2009,02,03,07,00,3.80
2009,02,03,07,01,3.80
2009,02,03,07,02,3.80
2009,02,03,07,03,3.90
2009,02,03,07,04,3.90
2009,02,03,07,05,3.90
2009,02,03,07,06,3.90
2009,02,03,07,07,3.90
2009,02,03,07,08,3.90
2009,02,03,07,09,3.90
2009,02,03,07,10,3.90
2009,02,03,07,11,3.90
2009,02,03,07,12,3.90
2009,02,03,07,13,3.90
2009,02,03,07,14,3.90
2009,02,03,07,15,3.90
2009,02,03,07,16,3.90
2009,02,03,07,17,3.90
2009,02,03,07,18,3.90
2009,02,03,07,19,3.90
2009,02,03,07,20,3.80
2009,02,03,07,21,3.80
2009,02,03,07,22,3.80
2009,02,03,07,23,3.70
2009,02,03,07,24,3.70
2009,02,03,07,25,3.70
2009,02,03,07,26,3.70
2009,02,03,07,27,3.60
2009,02,03,07,28,3.60
2009,02,03,07,29,3.60
2009,02,03,07,30,3.60
2009,02,03,07,31,3.50
2009,02,03,07,32,3.50
2009,02,03,07,33,3.50
2009,02,03,07,34,3.40
2009,02,03,07,35,3.40
2009,02,03,07,36,3.40
2009,02,03,07,37,3.40
2009,02,03,07,38,3.40
2009,02,03,07,39,3.40
2009,02,03,07,40,3.40
2009,02,03,07,41,3.40
2009,02,03,07,42,3.40
2009,02,03,07,43,3.40
2009,02,03,07,44,3.40
2009,02,03,07,45,3.40
2009,02,03,07,46,3.40
2009,02,03,07,47,3.40
2009,02,03,07,48,3.40
2009,02,03,07,49,3.50
2009,02,03,07,50,3.50
2009,02,03,07,51,3.60
2009,02,03,07,52,3.60
2009,02,03,07,53,3.70
2009,02,03,07,54,3.70
2009,02,03,07,55,3.70
2009,02,03,07,56,3.70
2009,02,03,07,57,3.60
2009,02,03,07,58,3.60
2009,02,03,07,59,3.60
2009,02,03,08,00,3.60
2009,02,03,08,01,3.60
2009,02,03,08,02,3.60
2009,02,03,08,03,3.60
2009,02,03,08,04,3.60
2009,02,03,08,05,3.50
2009,02,03,08,06,3.50
2009,02,03,08,07,3.50
2009,02,03,08,08,3.50
2009,02,03,08,09,3.60
2009,02,03,08,10,3.60
2009,02,03,08,11,3.60
2009,02,03,08,12,3.60
2009,02,03,08,13,3.60
2009,02,03,08,14,3.70
2009,02,03,08,15,3.70
2009,02,03,08,16,3.70
2009,02,03,08,17,3.70
2009,02,03,08,18,3.70
2009,02,03,08,19,3.70
2009,02,03,08,20,3.80
2009,02,03,08,21,3.80
2009,02,03,08,22,3.80
2009,02,03,08,23,3.80
2009,02,03,08,24,3.80
2009,02,03,08,25,3.70
2009,02,03,08,26,3.70
2009,02,03,08,27,3.70
2009,02,03,08,28,3.70
2009,02,03,08,29,3.70
2009,02,03,08,30,3.70
2009,02,03,08,31,3.70
2009,02,03,08,32,3.70
2009,02,03,08,33,3.70
2009,02,03,08,34,3.70
2009,02,03,08,35,3.70
2009,02,03,08,36,3.70
2009,02,03,08,37,3.70
2009,02,03,08,38,3.70
2009,02,03,08,39,3.70
2009,02,03,08,40,3.70
2009,02,03,08,41,3.60
2009,02,03,08,42,3.60
2009,02,03,08,43,3.60
2009,02,03,08,44,3.60
2009,02,03,08,45,3.60
2009,02,03,08,46,3.70
2009,02,03,08,47,3.70
2009,02,03,08,48,3.70
2009,02,03,08,49,3.70
2009,02,03,08,50,3.80
2009,02,03,08,51,3.80
2009,02,03,08,52,3.80
2009,02,03,08,53,3.80
2009,02,03,08,54,3.80
2009,02,03,08,55,3.80
2009,02,03,08,56,3.80
2009,02,03,08,57,3.80
2009,02,03,08,58,3.90
2009,02,03,08,59,3.90
2009,02,03,09,00,3.90
2009,02,03,09,01,3.90
2009,02,03,09,02,3.90
2009,02,03,09,03,4.00
2009,02,03,09,04,4.00
2009,02,03,09,05,4.00
2009,02,03,09,06,4.00
2009,02,03,09,07,4.10
2009,02,03,09,08,4.10
2009,02,03,09,09,4.10
2009,02,03,09,10,4.10
2009,02,03,09,11,4.10
2009,02,03,09,12,4.10
2009,02,03,09,13,4.10
2009,02,03,09,14,4.20
2009,02,03,09,15,4.20
2009,02,03,09,16,4.20
2009,02,03,09,17,4.30
2009,02,03,09,18,4.40
2009,02,03,09,19,4.40
2009,02,03,09,20,4.50
2009,02,03,09,21,4.50
2009,02,03,09,22,4.60
2009,02,03,09,23,4.70
2009,02,03,09,24,4.70
2009,02,03,09,25,4.70
2009,02,03,09,26,4.80
2009,02,03,09,27,4.80
2009,02,03,09,28,4.80
2009,02,03,09,29,4.80
2009,02,03,09,30,4.80
2009,02,03,09,31,4.90
2009,02,03,09,32,4.90
2009,02,03,09,33,4.90
2009,02,03,09,34,5.00
2009,02,03,09,35,5.00
2009,02,03,09,36,5.10
2009,02,03,09,37,5.10
2009,02,03,09,38,5.10
2009,02,03,09,39,5.10
2009,02,03,09,40,5.10
2009,02,03,09,41,5.20
2009,02,03,09,42,5.20
2009,02,03,09,43,5.20
2009,02,03,09,44,5.30
2009,02,03,09,45,5.30
2009,02,03,09,46,5.30
2009,02,03,09,47,5.30
2009,02,03,09,48,5.40
2009,02,03,09,49,5.40
2009,02,03,09,50,5.40
2009,02,03,09,51,5.50
2009,02,03,09,52,5.50
2009,02,03,09,53,5.60
2009,02,03,09,54,5.60
2009,02,03,09,55,5.70
2009,02,03,09,56,5.70
2009,02,03,09,57,5.80
2009,02,03,09,58,5.90
2009,02,03,09,59,5.90
2009,02,03,10,00,5.90
2009,02,03,10,01,5.90
2009,02,03,10,02,6.00
2009,02,03,10,03,6.00
2009,02,03,10,04,6.00
2009,02,03,10,05,6.00
2009,02,03,10,06,6.00
2009,02,03,10,07,6.10
2009,02,03,10,08,6.10
2009,02,03,10,09,6.10
2009,02,03,10,10,6.20
2009,02,03,10,11,6.20
2009,02,03,10,12,6.20
2009,02,03,10,13,6.20
2009,02,03,10,14,6.30
2009,02,03,10,15,6.30
2009,02,03,10,16,6.30
2009,02,03,10,17,6.40
2009,02,03,10,18,6.40
2009,02,03,10,19,6.50
2009,02,03,10,20,6.50
2009,02,03,10,21,6.50
2009,02,03,10,22,6.60
2009,02,03,10,23,6.60
2009,02,03,10,24,6.60
2009,02,03,10,25,6.60
2009,02,03,10,26,6.60
2009,02,03,10,27,6.60
2009,02,03,10,28,6.70
2009,02,03,10,29,6.70
2009,02,03,10,30,6.70
2009,02,03,10,31,6.70
2009,02,03,10,32,6.70
2009,02,03,10,33,6.70
2009,02,03,10,34,6.70
2009,02,03,10,35,6.80
2009,02,03,10,36,6.80
2009,02,03,10,37,6.80
2009,02,03,10,38,6.90
2009,02,03,10,39,6.90
2009,02,03,10,40,6.90
2009,02,03,10,41,6.90
2009,02,03,10,42,7.00
2009,02,03,10,43,7.00
2009,02,03,10,44,7.00
2009,02,03,10,45,7.00
2009,02,03,10,46,7.10
2009,02,03,10,47,7.10
2009,02,03,10,48,7.10
2009,02,03,10,49,7.10
2009,02,03,10,50,7.10
2009,02,03,10,51,7.10
2009,02,03,10,52,7.10
2009,02,03,10,53,7.10
2009,02,03,10,54,7.10
2009,02,03,10,55,7.10
2009,02,03,10,56,7.10
2009,02,03,10,57,7.10
2009,02,03,10,58,7.10
2009,02,03,10,59,7.10
2009,02,03,11,00,7.10
2009,02,03,11,01,7.10
2009,02,03,11,02,7.10
2009,02,03,11,03,7.20
2009,02,03,11,04,7.20
2009,02,03,11,05,7.20
2009,02,03,11,06,7.20
2009,02,03,11,07,7.20
2009,02,03,11,08,7.20
2009,02,03,11,09,7.20
2009,02,03,11,10,7.20
2009,02,03,11,11,7.20
2009,02,03,11,12,7.20
2009,02,03,11,13,7.20
2009,02,03,11,14,7.20
2009,02,03,11,15,7.20
2009,02,03,11,16,7.20
2009,02,03,11,17,7.20
2009,02,03,11,18,7.20
2009,02,03,11,19,7.20
2009,02,03,11,20,7.20
2009,02,03,11,21,7.20
2009,02,03,11,22,7.20
2009,02,03,11,23,7.20
2009,02,03,11,24,7.20
2009,02,03,11,25,7.20
2009,02,03,11,26,7.20
2009,02,03,11,27,7.20
2009,02,03,11,28,7.20
2009,02,03,11,29,7.20
2009,02,03,11,30,7.20
2009,02,03,11,31,7.20
2009,02,03,11,32,7.20
2009,02,03,11,33,7.20
2009,02,03,11,34,7.20
2009,02,03,11,35,7.20
2009,02,03,11,36,7.20
2009,02,03,11,37,7.20
2009,02,03,11,38,7.20
2009,02,03,11,39,7.20
2009,02,03,11,40,7.10
2009,02,03,11,41,7.10
2009,02,03,11,42,7.10
2009,02,03,11,43,7.10
2009,02,03,11,44,7.10
2009,02,03,11,45,7.10
2009,02,03,11,46,7.20
2009,02,03,11,47,7.20
2009,02,03,11,48,7.20
2009,02,03,11,49,7.20
2009,02,03,11,50,7.20
2009,02,03,11,51,7.20
2009,02,03,11,52,7.20
2009,02,03,11,53,7.20
2009,02,03,11,54,7.20
2009,02,03,11,55,7.20
2009,02,03,11,56,7.20
2009,02,03,11,57,7.20
2009,02,03,11,58,7.20
2009,02,03,11,59,7.20
2009,02,03,12,00,7.20
2009,02,03,12,01,7.30
2009,02,03,12,02,7.30
2009,02,03,12,03,7.30
2009,02,03,12,04,7.30
2009,02,03,12,05,7.30
2009,02,03,12,06,7.30
2009,02,03,12,07,7.30
2009,02,03,12,08,7.40
2009,02,03,12,09,7.40
2009,02,03,12,10,7.40
2009,02,03,12,11,7.50
2009,02,03,12,12,7.50
2009,02,03,12,13,7.60
2009,02,03,12,14,7.60
2009,02,03,12,15,7.60
2009,02,03,12,16,7.60
2009,02,03,12,17,7.60
2009,02,03,12,18,7.60
2009,02,03,12,19,7.60
2009,02,03,12,20,7.60
2009,02,03,12,21,7.60
2009,02,03,12,22,7.70
2009,02,03,12,23,7.70
2009,02,03,12,24,7.70
2009,02,03,12,25,7.70
2009,02,03,12,26,7.80
2009,02,03,12,27,7.80
2009,02,03,12,28,7.80
2009,02,03,12,29,7.80
2009,02,03,12,30,7.80
2009,02,03,12,31,7.80
2009,02,03,12,32,7.80
2009,02,03,12,33,7.80
2009,02,03,12,34,7.90
2009,02,03,12,35,7.90
2009,02,03,12,36,7.90
2009,02,03,12,37,7.90
2009,02,03,12,38,7.90
2009,02,03,12,39,7.90
2009,02,03,12,40,7.90
2009,02,03,12,41,7.90
2009,02,03,12,42,7.90
2009,02,03,12,43,7.90
2009,02,03,12,44,7.90
2009,02,03,12,45,7.90
2009,02,03,12,46,8.00
2009,02,03,12,47,8.00
2009,02,03,12,48,8.00
2009,02,03,12,49,8.00
2009,02,03,12,50,8.00
2009,02,03,12,51,8.00
2009,02,03,12,52,8.00
2009,02,03,12,53,8.00
2009,02,03,12,54,8.10
2009,02,03,12,55,8.10
2009,02,03,12,56,8.10
2009,02,03,12,57,8.10
2009,02,03,12,58,8.10
2009,02,03,12,59,8.10
2009,02,03,13,00,8.10
2009,02,03,13,01,8.10
2009,02,03,13,02,8.20
2009,02,03,13,03,8.20
2009,02,03,13,04,8.20
2009,02,03,13,05,8.20
2009,02,03,13,06,8.20
2009,02,03,13,07,8.30
2009,02,03,13,08,8.30
2009,02,03,13,09,8.30
2009,02,03,13,10,8.30
2009,02,03,13,11,8.30
2009,02,03,13,12,8.30
2009,02,03,13,13,8.20
2009,02,03,13,14,8.20
2009,02,03,13,15,8.20
2009,02,03,13,16,8.20
2009,02,03,13,17,8.20
2009,02,03,13,18,8.20
2009,02,03,13,19,8.20
2009,02,03,13,20,8.20
2009,02,03,13,21,8.20
2009,02,03,13,22,8.30
2009,02,03,13,23,8.30
2009,02,03,13,24,8.30
2009,02,03,13,25,8.30
2009,02,03,13,26,8.30
2009,02,03,13,27,8.30
2009,02,03,13,28,8.30
2009,02,03,13,29,8.40
2009,02,03,13,30,8.40
2009,02,03,13,31,8.40
2009,02,03,13,32,8.40
2009,02,03,13,33,8.50
2009,02,03,13,34,8.50
2009,02,03,13,35,8.50
2009,02,03,13,36,8.60
2009,02,03,13,37,8.60
2009,02,03,13,38,8.60
2009,02,03,13,39,8.60
2009,02,03,13,40,8.70
2009,02,03,13,41,8.70
2009,02,03,13,42,8.70
2009,02,03,13,43,8.70
2009,02,03,13,44,8.70
2009,02,03,13,45,8.70
2009,02,03,13,46,8.70
2009,02,03,13,47,8.70
2009,02,03,13,48,8.70
2009,02,03,13,49,8.80
2009,02,03,13,50,8.80
2009,02,03,13,51,8.80
2009,02,03,13,52,8.80
2009,02,03,13,53,8.70
2009,02,03,13,54,8.70
2009,02,03,13,55,8.70
2009,02,03,13,56,8.70
2009,02,03,13,57,8.70
2009,02,03,13,58,8.70
2009,02,03,13,59,8.70
2009,02,03,14,00,8.70
2009,02,03,14,01,8.80
2009,02,03,14,02,8.80
2009,02,03,14,03,8.80
2009,02,03,14,04,8.80
2009,02,03,14,05,8.80
2009,02,03,14,06,8.80
2009,02,03,14,07,8.80
2009,02,03,14,08,8.80
2009,02,03,14,09,8.80
2009,02,03,14,10,8.80
2009,02,03,14,11,8.80
2009,02,03,14,12,8.80
2009,02,03,14,13,8.80
2009,02,03,14,14,8.80
2009,02,03,14,15,8.80
2009,02,03,14,16,8.80
2009,02,03,14,17,8.80
2009,02,03,14,18,8.90
2009,02,03,14,19,8.90
2009,02,03,14,20,8.90
2009,02,03,14,21,8.90
2009,02,03,14,22,8.90
2009,02,03,14,23,9.00
2009,02,03,14,24,9.00
2009,02,03,14,25,9.00
2009,02,03,14,26,9.00
2009,02,03,14,27,9.10
2009,02,03,14,28,9.10
2009,02,03,14,29,9.10
2009,02,03,14,30,9.10
2009,02,03,14,31,9.10
2009,02,03,14,32,9.10
2009,02,03,14,33,9.10
2009,02,03,14,34,9.10
2009,02,03,14,35,9.20
2009,02,03,14,36,9.20
2009,02,03,14,37,9.20
2009,02,03,14,38,9.20
2009,02,03,14,39,9.20
2009,02,03,14,40,9.20
2009,02,03,14,41,9.20
2009,02,03,14,42,9.20
2009,02,03,14,43,9.20
2009,02,03,14,44,9.20
2009,02,03,14,45,9.20
2009,02,03,14,46,9.20
2009,02,03,14,47,9.20
2009,02,03,14,48,9.20
2009,02,03,14,49,9.20
2009,02,03,14,50,9.20
2009,02,03,14,51,9.20
2009,02,03,14,52,9.20
2009,02,03,14,53,9.20
2009,02,03,14,54,9.20
2009,02,03,14,55,9.10
2009,02,03,14,56,9.10
2009,02,03,14,57,9.10
2009,02,03,14,58,9.10
2009,02,03,14,59,9.10
2009,02,03,15,00,9.00
2009,02,03,15,01,9.00
2009,02,03,15,02,9.00
2009,02,03,15,03,9.00
2009,02,03,15,04,9.00
2009,02,03,15,05,9.00
2009,02,03,15,06,8.90
2009,02,03,15,07,8.90
2009,02,03,15,08,8.90
2009,02,03,15,09,8.90
2009,02,03,15,10,8.90
2009,02,03,15,11,8.90
2009,02,03,15,12,8.90
2009,02,03,15,13,8.90
2009,02,03,15,14,8.90
2009,02,03,15,15,8.90
2009,02,03,15,16,8.80
2009,02,03,15,17,8.80
2009,02,03,15,18,8.80
2009,02,03,15,19,8.80
2009,02,03,15,20,8.80
2009,02,03,15,21,8.80
2009,02,03,15,22,8.80
2009,02,03,15,23,8.80
2009,02,03,15,24,8.80
2009,02,03,15,25,8.80
2009,02,03,15,26,8.80
2009,02,03,15,27,8.70
2009,02,03,15,28,8.70
2009,02,03,15,29,8.70
2009,02,03,15,30,8.70
2009,02,03,15,31,8.70
2009,02,03,15,32,8.70
2009,02,03,15,33,8.70
2009,02,03,15,34,8.70
2009,02,03,15,35,8.70
2009,02,03,15,36,8.70
2009,02,03,15,37,8.70
2009,02,03,15,38,8.60
2009,02,03,15,39,8.60
2009,02,03,15,40,8.60
2009,02,03,15,41,8.60
2009,02,03,15,42,8.60
2009,02,03,15,43,8.60
2009,02,03,15,44,8.60
2009,02,03,15,45,8.50
2009,02,03,15,46,8.50
2009,02,03,15,47,8.50
2009,02,03,15,48,8.50
2009,02,03,15,49,8.50
2009,02,03,15,50,8.50
2009,02,03,15,51,8.40
2009,02,03,15,52,8.40
2009,02,03,15,53,8.40
2009,02,03,15,54,8.40
2009,02,03,15,55,8.40
2009,02,03,15,56,8.40
2009,02,03,15,57,8.40
2009,02,03,15,58,8.30
2009,02,03,15,59,8.30
2009,02,03,16,00,8.30
2009,02,03,16,01,8.30
2009,02,03,16,02,8.30
2009,02,03,16,03,8.30
2009,02,03,16,04,8.30
2009,02,03,16,05,8.30
2009,02,03,16,06,8.30
2009,02,03,16,07,8.30
2009,02,03,16,08,8.30
2009,02,03,16,09,8.30
2009,02,03,16,10,8.20
2009,02,03,16,11,8.20
2009,02,03,16,12,8.20
2009,02,03,16,13,8.20
2009,02,03,16,14,8.20
2009,02,03,16,15,8.20
2009,02,03,16,16,8.10
2009,02,03,16,17,8.10
2009,02,03,16,18,8.10
2009,02,03,16,19,8.10
2009,02,03,16,20,8.10
2009,02,03,16,21,8.00
2009,02,03,16,22,8.00
2009,02,03,16,23,7.90
2009,02,03,16,24,7.90
2009,02,03,16,25,7.80
2009,02,03,16,26,7.80
2009,02,03,16,27,7.80
2009,02,03,16,28,7.70
2009,02,03,16,29,7.70
2009,02,03,16,30,7.70
2009,02,03,16,31,7.60
2009,02,03,16,32,7.60
2009,02,03,16,33,7.50
2009,02,03,16,34,7.50
2009,02,03,16,35,7.40
2009,02,03,16,36,7.40
2009,02,03,16,37,7.40
2009,02,03,16,38,7.30
2009,02,03,16,39,7.30
2009,02,03,16,40,7.30
2009,02,03,16,41,7.20
2009,02,03,16,42,7.20
2009,02,03,16,43,7.20
2009,02,03,16,44,7.20
2009,02,03,16,45,7.20
2009,02,03,16,46,7.10
2009,02,03,16,47,7.10
2009,02,03,16,48,7.10
2009,02,03,16,49,7.10
2009,02,03,16,50,7.00
2009,02,03,16,51,7.00
2009,02,03,16,52,6.90
2009,02,03,16,53,6.90
2009,02,03,16,54,6.90
2009,02,03,16,55,6.90
2009,02,03,16,56,6.80
2009,02,03,16,57,6.80
2009,02,03,16,58,6.80
2009,02,03,16,59,6.70
2009,02,03,17,00,6.70
2009,02,03,17,01,6.60
2009,02,03,17,02,6.60
2009,02,03,17,03,6.50
2009,02,03,17,04,6.50
2009,02,03,17,05,6.40
2009,02,03,17,06,6.40
2009,02,03,17,07,6.30
2009,02,03,17,08,6.30
2009,02,03,17,09,6.30
2009,02,03,17,10,6.20
2009,02,03,17,11,6.20
2009,02,03,17,12,6.20
2009,02,03,17,13,6.10
2009,02,03,17,14,6.10
2009,02,03,17,15,6.00
2009,02,03,17,16,6.00
2009,02,03,17,17,5.90
2009,02,03,17,18,5.90
2009,02,03,17,19,5.80
2009,02,03,17,20,5.80
2009,02,03,17,21,5.70
2009,02,03,17,22,5.70
2009,02,03,17,23,5.60
2009,02,03,17,24,5.60
2009,02,03,17,25,5.50
2009,02,03,17,26,5.50
2009,02,03,17,27,5.40
2009,02,03,17,28,5.40
2009,02,03,17,29,5.40
2009,02,03,17,30,5.30
2009,02,03,17,31,5.20
2009,02,03,17,32,5.20
2009,02,03,17,33,5.20
2009,02,03,17,34,5.10
2009,02,03,17,35,5.10
2009,02,03,17,36,5.00
2009,02,03,17,37,5.00
2009,02,03,17,38,4.90
2009,02,03,17,39,4.90
2009,02,03,17,40,4.80
2009,02,03,17,41,4.80
2009,02,03,17,42,4.70
2009,02,03,17,43,4.70
2009,02,03,17,44,4.60
2009,02,03,17,45,4.60
2009,02,03,17,46,4.60
2009,02,03,17,47,4.50
2009,02,03,17,48,4.50
2009,02,03,17,49,4.40
2009,02,03,17,50,4.40
2009,02,03,17,51,4.40
2009,02,03,17,52,4.30
2009,02,03,17,53,4.30
2009,02,03,17,54,4.30
2009,02,03,17,55,4.20
2009,02,03,17,56,4.20
2009,02,03,17,57,4.20
2009,02,03,17,58,4.10
2009,02,03,17,59,4.10
2009,02,03,18,00,4.10
2009,02,03,18,01,4.00
2009,02,03,18,02,4.00
2009,02,03,18,03,4.00
2009,02,03,18,04,3.90
2009,02,03,18,05,3.90
2009,02,03,18,06,3.90